Regional Weather Roundup
Issued by NWS

Home | Current Version | Previous Version | Text Only | Print | Product List | Glossary On
Versions: 1 2 3 4 5 6 7 8 9 10 11 12 13 14 15 16 17 18 19 20 21 22 23 24 25 26 27 28 29 30 31 32 33 34 35 36 37 38 39 40 41 42 43 44 45 46 47 48 49 50
000
ASUS45 KPSR 131700
RWRAZ

PRELIMINARY ARIZONA REGIONAL HOURLY WEATHER ROUNDUP
NATIONAL WEATHER SERVICE PHOENIX AZ
1000 AM MST SUN JUL 13 2014

NOTE: FAIR INDICATES FEW OR NO CLOUDS BELOW 12,000 FEET WITH NO
SIGNIFICANT WEATHER AND/OR OBSTRUCTIONS TO VISIBILITY.

AZZ001>003-036-131800-
NORTHWEST ARIZONA

CITY           SKY/WX    TMP DP  RH WIND       PRES   REMARKS
KINGMAN        SUNNY     94  43  17 E7        30.07S
$$

AZZ004>008-015-016-018-131800-
NORTH CENTRAL ARIZONA

CITY           SKY/WX    TMP DP  RH WIND       PRES   REMARKS
GRAND CANYON   PTSUNNY   83  46  27 VRB7      30.33F
WILLIAMS       PTSUNNY   77  48  36 SE10      30.41R
PRESCOTT       MOSUNNY   86  49  27 S6        30.21F
FLAGSTAFF      CLOUDY    74  49  41 E8        30.38S
PAYSON         SUNNY     82  55  39 VRB7      30.24F
PAGE           SUNNY     91  51  25 VRB3      30.15F
$$

AZZ009>014-017-131800-
NORTHEAST ARIZONA

CITY           SKY/WX    TMP DP  RH WIND       PRES   REMARKS
WINSLOW        NOT AVBL
SAINT JOHNS    SUNNY     79  60  52 CALM      30.28F
WINDOW ROCK    PTSUNNY   81  51  35 MISG      30.36F
$$

AZZ023-131800-
GREATER PHOENIX AREA

CITY           SKY/WX    TMP DP  RH WIND       PRES   REMARKS
PHOENIX        MOSUNNY   99  61  28 NE7       29.89F
GLENDALE       MOSUNNY   99  61  28 E7        29.91F
LUKE AFB       NOT AVBL
DEER VALLEY    SUNNY     96  58  27 SW6       29.92S
SCOTTSDALE     SUNNY     97  59  28 NW3       29.94S
MESA-GATEWAY   MOSUNNY   97  57  26 CALM      29.94F
CHANDLER       MOSUNNY   95  61  31 VRB5      29.92S
$$

AZZ027-028-131800-
SOUTHWEST MARICOPA COUNTY AND PINAL COUNTY

CITY           SKY/WX    TMP DP  RH WIND       PRES   REMARKS
CASA GRANDE    SUNNY     95  61  31 E7        29.94S
GILA BEND      MOSUNNY   99  46  16 NW2       29.90S
$$

AZZ503-504-507>509-131800-
SOUTHEAST ARIZONA

CITY           SKY/WX    TMP DP  RH WIND       PRES   REMARKS
TUCSON         SUNNY     93  58  30 VRB5      30.02F
DAVIS-MONTHAN  SUNNY     91  58  33 N5        30.01S
RYAN FIELD       N/A     91  57  31 CALM      30.01F
NOGALES        SUNNY     84  60  44 S3        30.10S
SIERRA VISTA   SUNNY     80  59  48 E10       30.18S
SAFFORD        MOSUNNY   89  58  34 S10       30.08S
$$

AZZ020-021-025-026-031-131800-
SOUTHWEST ARIZONA

CITY           SKY/WX    TMP DP  RH WIND       PRES   REMARKS
YUMA           NOT AVBL
$$

CAZ031-033-041-043-047-048-061-131800-
SOUTHERN CALIFORNIA

CITY           SKY/WX    TMP DP  RH WIND       PRES   REMARKS
DOWNTOWN L.A.  SUNNY     80  62  54 CALM      29.89F
L.A. AIRPORT   MOSUNNY   74  63  68 W10       29.92R
SAN DIEGO      PTSUNNY   72  63  73 SW7       29.93F
BURBANK        SUNNY     82  55  39 CALM      29.90F
ONTARIO        MOSUNNY   80  60  50 SW5       29.91F
RIVERSIDE      PTSUNNY   81  59  47 CALM      29.91F
PALM SPRINGS   SUNNY    104  47  14 E9        29.83S HX 100
EL CENTRO NAS  MOSUNNY   96  62  32 SE9       29.80F
IMPERIAL       MOSUNNY   96  61  31 SE10      29.80S
BLYTHE         MOSUNNY   98  47  17 S3        29.83F
$$

NVZ020-UTZ003-131800-
SOUTHERN NEVADA-UTAH

CITY           SKY/WX    TMP DP  RH WIND       PRES   REMARKS
LAS VEGAS      NOT AVBL
SALT LAKE CITY MOSUNNY   87  52  29 NW6       30.20S
$$

NMZ009-TXZ055-131800-
NEW MEXICO-WEST TEXAS

CITY           SKY/WX    TMP DP  RH WIND       PRES   REMARKS
ALBUQUERQUE    MOSUNNY   81  53  37 E6        30.30F
EL PASO        PTSUNNY   83  59  44 NE7       30.18F
$$


........................KEY........................
SKY/WX - SKY CONDITION/WEATHER
TMP    - TEMPERATURE IN FAHRENHEIT
DP     - DEW POINT IN FAHRENHEIT
RH     - RELATIVE HUMIDITY IN PERCENT
WIND   - DIRECTION AND SPEED IN MILES PER HOUR (MPH)
VRB    - VARIABLE WIND DIRECTION
PRES   - MEAN SEA LEVEL PRESSURE IN INCHES OF MERCURY
         F - FALLING PRESSURE   R - RISING PRESSURE
         S - STEADY PRESSURE
VSB    - VISIBILITY IN MILES
HX     - HEAT INDEX IN FAHRENHEIT
WCI    - WIND CHILL INDEX IN FAHRENHEIT
TC     - TEMPERATURE IN CELSIUS WHICH IS ALSO KNOWN AS
         TEMPERATURE IN CENTIGRADE
AFB    - AIR FORCE BASE
         LUKE AFB IS LUKE AIR FORCE BASE
         DAVIS-MONTHAN IS DAVIS-MONTHAN AIR FORCE BASE
NAS    - NAVAL AIR STATION
         EL CENTRO NAS IS EL CENTRO NAVAL AIR STATION
N/A    - NOT AVAILABLE


USA.gov is the U.S. government's official web portal to all federal, state and local government web resources and services.